When you browse on this site, cookies collect data to enhance your experience and personalize the content and advertising you see.
Visit our Privacy Policy to learn more. By continuing to use the site, you agree to this use of cookies and data.
  • In France
  • List of Countries
  • For 7 days
  • Water Temperature
  • Weather Map
  • Weather Widgets
  • user-avatar
    Login

    Hourly Weather Prutz

    Today, 23 August, Friday

    Time Temperature Precipitation Wind Pressure Humidity
    00:00 +9°C° 0 mm 0 mps 639 mmHg 93%
    01:00 +9°C° 0 mm 0 mps 639 mmHg 93%
    02:00 +9°C° 0 mm 0 mps 639 mmHg 92%
    03:00 +9°C° 0 mm 0 mps 639 mmHg 91%
    04:00 +9°C° 0 mm 0 mps 638 mmHg 90%
    05:00 +10°C° 0 mm 0 mps 639 mmHg 87%
    06:00 +12°C° 0 mm 0 mps 640 mmHg 84%
    07:00 +14°C° 0 mm 0 mps 640 mmHg 81%
    08:00 +16°C° 0 mm 1 mps 641 mmHg 74%
    09:00 +19°C° 0 mm 1 mps 641 mmHg 67%
    10:00 +21°C° 0 mm 1 mps 642 mmHg 60%
    11:00 +21°C° 0.4 mm 1 mps 642 mmHg 60%
    12:00 +21°C° 0.4 mm 1 mps 642 mmHg 60%
    13:00 +21°C° 0.4 mm 2 mps 641 mmHg 60%
    14:00 +21°C° 1.2 mm 1 mps 641 mmHg 65%
    15:00 +20°C° 1.2 mm 1 mps 641 mmHg 71%
    16:00 +20°C° 1.2 mm 1 mps 641 mmHg 76%
    17:00 +19°C° 1 mm 1 mps 640 mmHg 81%
    18:00 +16°C° 1 mm 1 mps 639 mmHg 86%
    19:00 +14°C° 1 mm 0 mps 639 mmHg 91%
    20:00 +15°C° 0.3 mm 1 mps 639 mmHg 90%
    21:00 +14°C° 0.3 mm 1 mps 639 mmHg 88%
    22:00 +14°C° 0.3 mm 1 mps 639 mmHg 87%
    23:00 +13°C° 0 mm 1 mps 639 mmHg 86%

    Tomorrow, 24 August, Saturday

    Time Temperature Precipitation Wind Pressure Humidity
    00:00 +13°C° 0 mm 1 mps 638 mmHg 86%
    01:00 +12°C° 0 mm 1 mps 638 mmHg 86%
    02:00 +12°C° 0 mm 2 mps 638 mmHg 85%
    03:00 +12°C° 0 mm 2 mps 637 mmHg 85%
    04:00 +12°C° 0 mm 2 mps 637 mmHg 85%
    05:00 +13°C° 0 mm 2 mps 638 mmHg 83%
    06:00 +14°C° 0 mm 2 mps 638 mmHg 82%
    07:00 +15°C° 0 mm 2 mps 638 mmHg 80%
    08:00 +18°C° 0 mm 1 mps 639 mmHg 71%
    09:00 +20°C° 0 mm 1 mps 640 mmHg 63%
    10:00 +22°C° 0 mm 1 mps 640 mmHg 54%
    11:00 +22°C° 0.3 mm 1 mps 640 mmHg 53%
    12:00 +23°C° 0.3 mm 1 mps 640 mmHg 53%
    13:00 +23°C° 0.3 mm 1 mps 640 mmHg 52%
    14:00 +23°C° 1.3 mm 1 mps 640 mmHg 58%
    15:00 +22°C° 1.3 mm 1 mps 639 mmHg 64%
    16:00 +21°C° 1.3 mm 1 mps 639 mmHg 70%
    17:00 +20°C° 1.2 mm 1 mps 638 mmHg 76%
    18:00 +19°C° 1.2 mm 1 mps 638 mmHg 82%
    19:00 +16°C° 1.2 mm 1 mps 637 mmHg 88%
    20:00 +16°C° 0.7 mm 1 mps 637 mmHg 88%
    21:00 +15°C° 0.7 mm 1 mps 638 mmHg 88%
    22:00 +15°C° 0.7 mm 1 mps 638 mmHg 88%
    23:00 +14°C° 0.1 mm 1 mps 637 mmHg 88%

    Day after tomorrow, 25 August, Sunday

    Time Temperature Precipitation Wind Pressure Humidity
    00:00 +14°C° 0.1 mm 1 mps 637 mmHg 87%
    01:00 +13°C° 0.1 mm 1 mps 637 mmHg 86%
    02:00 +13°C° 0 mm 1 mps 637 mmHg 87%
    03:00 +13°C° 0 mm 1 mps 637 mmHg 87%
    04:00 +13°C° 0 mm 1 mps 636 mmHg 87%
    05:00 +13°C° 0 mm 0 mps 637 mmHg 85%
    06:00 +14°C° 0 mm 0 mps 637 mmHg 82%
    07:00 +15°C° 0 mm 0 mps 638 mmHg 80%
    08:00 +18°C° 0.3 mm 1 mps 638 mmHg 76%
    09:00 +20°C° 0.3 mm 1 mps 639 mmHg 71%
    10:00 +21°C° 0.3 mm 1 mps 639 mmHg 67%
    11:00 +21°C° 1.6 mm 1 mps 639 mmHg 68%
    12:00 +21°C° 1.6 mm 1 mps 639 mmHg 69%
    13:00 +21°C° 1.6 mm 2 mps 639 mmHg 69%
    14:00 +20°C° 1.7 mm 2 mps 638 mmHg 72%
    15:00 +20°C° 1.7 mm 2 mps 638 mmHg 75%
    16:00 +19°C° 1.7 mm 2 mps 638 mmHg 77%
    17:00 +19°C° 0.6 mm 1 mps 637 mmHg 82%
    18:00 +16°C° 0.6 mm 1 mps 637 mmHg 86%
    19:00 +14°C° 0.6 mm 0 mps 637 mmHg 90%
    20:00 +13°C° 0 mm 0 mps 637 mmHg 91%
    21:00 +12°C° 0 mm 0 mps 637 mmHg 92%
    22:00 +11°C° 0 mm 0 mps 637 mmHg 92%
    23:00 +11°C° 0 mm 0 mps 637 mmHg 92%

    26 August, Monday

    Time Temperature Precipitation Wind Pressure Humidity
    00:00 +11°C° 0 mm 0 mps 636 mmHg 92%
    01:00 +10°C° 0 mm 0 mps 636 mmHg 92%
    02:00 +10°C° 0 mm 0 mps 636 mmHg 92%
    03:00 +11°C° 0 mm 1 mps 636 mmHg 92%
    04:00 +11°C° 0 mm 1 mps 636 mmHg 92%
    05:00 +12°C° 0 mm 1 mps 636 mmHg 89%
    06:00 +14°C° 0 mm 1 mps 637 mmHg 86%
    07:00 +15°C° 0 mm 1 mps 637 mmHg 83%
    08:00 +18°C° 0 mm 1 mps 638 mmHg 74%
    09:00 +20°C° 0 mm 1 mps 639 mmHg 65%
    10:00 +20°C° 0 mm 0 mps 639 mmHg 55%
    11:00 +23°C° 0.1 mm 1 mps 640 mmHg 50%
    12:00 +24°C° 0.1 mm 1 mps 640 mmHg 46%
    13:00 +25°C° 0.1 mm 1 mps 640 mmHg 41%
    14:00 +24°C° 0.2 mm 1 mps 639 mmHg 42%
    15:00 +24°C° 0.2 mm 1 mps 639 mmHg 44%
    16:00 +24°C° 0.2 mm 2 mps 639 mmHg 45%
    17:00 +22°C° 0.2 mm 1 mps 638 mmHg 59%
    18:00 +19°C° 0.2 mm 1 mps 637 mmHg 73%
    19:00 +16°C° 0.2 mm 1 mps 637 mmHg 87%
    20:00 +15°C° 0.1 mm 1 mps 637 mmHg 88%
    21:00 +14°C° 0.1 mm 1 mps 637 mmHg 89%
    22:00 +14°C° 0.1 mm 1 mps 637 mmHg 90%
    23:00 +13°C° 0 mm 1 mps 637 mmHg 89%

    27 August, Tuesday

    Time Temperature Precipitation Wind Pressure Humidity
    00:00 +13°C° 0 mm 1 mps 637 mmHg 89%
    01:00 +13°C° 0 mm 1 mps 636 mmHg 88%
    02:00 +12°C° 0 mm 1 mps 636 mmHg 88%
    03:00 +12°C° 0 mm 1 mps 636 mmHg 88%
    04:00 +12°C° 0 mm 1 mps 636 mmHg 88%
    05:00 +13°C° 0 mm 1 mps 637 mmHg 85%
    06:00 +15°C° 0 mm 1 mps 637 mmHg 83%
    07:00 +16°C° 0 mm 1 mps 638 mmHg 80%
    08:00 +19°C° 0 mm 1 mps 639 mmHg 70%
    09:00 +21°C° 0 mm 1 mps 639 mmHg 60%
    10:00 +24°C° 0 mm 1 mps 640 mmHg 49%
    11:00 +24°C° 0 mm 1 mps 640 mmHg 46%
    12:00 +25°C° 0 mm 1 mps 640 mmHg 42%
    13:00 +26°C° 0 mm 1 mps 641 mmHg 39%
    14:00 +26°C° 0 mm 2 mps 640 mmHg 40%
    15:00 +25°C° 0 mm 2 mps 640 mmHg 41%
    16:00 +25°C° 0 mm 2 mps 639 mmHg 43%
    17:00 +23°C° 0 mm 2 mps 639 mmHg 56%
    18:00 +20°C° 0 mm 1 mps 638 mmHg 68%
    19:00 +18°C° 0 mm 1 mps 637 mmHg 81%
    20:00 +16°C° 0 mm 1 mps 637 mmHg 83%
    21:00 +15°C° 0 mm 1 mps 637 mmHg 85%
    22:00 +14°C° 0 mm 1 mps 637 mmHg 88%
    23:00 +14°C° 0 mm 1 mps 637 mmHg 88%

    28 August, Wednesday

    Time Temperature Precipitation Wind Pressure Humidity
    00:00 +14°C° 0 mm 1 mps 637 mmHg 88%
    01:00 +14°C° 0 mm 1 mps 637 mmHg 88%
    02:00 +14°C° 0 mm 1 mps 637 mmHg 87%
    03:00 +13°C° 0 mm 1 mps 637 mmHg 87%
    04:00 +13°C° 0 mm 1 mps 636 mmHg 87%
    05:00 +14°C° 0 mm 1 mps 637 mmHg 85%
    06:00 +15°C° 0 mm 1 mps 637 mmHg 82%
    07:00 +18°C° 0 mm 1 mps 638 mmHg 79%
    08:00 +20°C° 0 mm 1 mps 638 mmHg 71%
    09:00 +22°C° 0 mm 1 mps 639 mmHg 63%
    10:00 +23°C° 0 mm 1 mps 639 mmHg 55%
    11:00 +24°C° 0.2 mm 1 mps 639 mmHg 53%
    12:00 +24°C° 0.2 mm 1 mps 639 mmHg 51%
    13:00 +25°C° 0.2 mm 2 mps 639 mmHg 48%
    14:00 +24°C° 0.9 mm 2 mps 638 mmHg 55%
    15:00 +23°C° 0.9 mm 1 mps 638 mmHg 61%
    16:00 +22°C° 0.9 mm 1 mps 637 mmHg 67%
    17:00 +20°C° 1.2 mm 1 mps 636 mmHg 73%
    18:00 +19°C° 1.2 mm 1 mps 636 mmHg 79%
    19:00 +15°C° 1.2 mm 0 mps 636 mmHg 85%
    20:00 +16°C° 0.5 mm 1 mps 636 mmHg 86%
    21:00 +15°C° 0.5 mm 1 mps 636 mmHg 87%
    22:00 +14°C° 0.5 mm 1 mps 636 mmHg 88%
    23:00 +14°C° 0.3 mm 1 mps 635 mmHg 88%
    Show more